Location: Unspecified
(43.4680°N, 87.1740°E)
Time: 15:39:10
(UTC+00:00)

Envisat - Visible Passes

Search period start: 23 September 2021 00:00
Search period end: 03 October 2021 00:00
Orbit: 764 x 766 km, 98.2° (Epoch: 22 September)

Date Brightness Start Highest point End Pass type
(mag) Time Alt. Az. Time Alt. Az. Time Alt. Az.
23 Sep 6.1 21:59:01 10° ENE 22:01:11 13° E 22:03:21 10° ESE visible
24 Sep 4.1 22:58:59 10° NNE 23:03:54 47° E 23:08:47 10° S visible
25 Sep 5.5 22:22:54 10° NE 22:26:49 22° E 22:30:43 10° SE visible
26 Sep 3.2 23:24:11 10° NNE 23:29:18 82° ESE 23:34:23 10° SSW visible
27 Sep 4.6 22:47:37 10° NNE 22:52:20 37° E 22:57:02 10° SSE visible
28 Sep 5.8 22:11:50 10° NE 22:15:12 17° E 22:18:32 10° SE visible
29 Sep 3.5 23:12:42 10° NNE 23:17:46 65° ESE 23:22:48 10° S visible
30 Sep 5.0 22:36:19 10° NE 22:40:46 30° E 22:45:10 10° SSE visible
01 Oct 6.0 22:01:01 10° ENE 22:03:32 14° E 22:06:04 10° ESE visible
01 Oct 3.0 23:38:01 10° N 23:43:06 74° WNW 23:48:10 10° SSW visible
02 Oct 4.0 23:01:16 10° NNE 23:06:14 51° E 23:11:10 10° S visible
